RYR24Y LEBL-DAAG

Flight info

Callsign RYR24Y
Flight time 0h 54m
Altitude 31000
Route LARPA N859 GENIO DCT BUYAH UA27 ALR
Aircraft B738/M-SDE2E3FGHIRWXY/LB1

Departure

Time 2026-05-08 22:51
Airport Josep Tarradellas Barcelona-El Prat Airport (LEBL)

Arrival

Time 2026-05-08 23:45
Airport Houari Boumediene Airport (DAAG)
Time Latitude Longitude Altitude Speed Heading
2026-05-08 22:36 41.28818 2.07712 2 ft 0 kts 245°
2026-05-08 22:42 41.28818 2.07713 2 ft 1 kts 245°
2026-05-08 22:42 41.28828 2.07740 2 ft 4 kts 245°
2026-05-08 22:42 41.28839 2.07772 2 ft 4 kts 245°
2026-05-08 22:43 41.28850 2.07802 2 ft 4 kts 256°
2026-05-08 22:43 41.28853 2.07825 2 ft 4 kts 297°
2026-05-08 22:43 41.28841 2.07852 2 ft 4 kts 319°
2026-05-08 22:43 41.28818 2.07868 2 ft 4 kts 341°
2026-05-08 22:44 41.28808 2.07873 2 ft 0 kts 336°
2026-05-08 22:47 41.28855 2.07860 2 ft 14 kts 11°
2026-05-08 22:47 41.28884 2.07964 3 ft 15 kts 139°
2026-05-08 22:47 41.28795 2.07927 2 ft 14 kts 210°
2026-05-08 22:48 41.28711 2.07871 2 ft 14 kts 208°
2026-05-08 22:48 41.28615 2.07787 2 ft 20 kts 230°
2026-05-08 22:48 41.28541 2.07592 3 ft 25 kts 247°
2026-05-08 22:48 41.28448 2.07521 3 ft 15 kts 218°
2026-05-08 22:49 41.28405 2.07402 2 ft 14 kts 246°
2026-05-08 22:49 41.28249 2.07393 7 ft 13 kts 142°
2026-05-08 22:49 41.28242 2.07476 8 ft 1 kts 63°
2026-05-08 22:50 41.28244 2.07483 9 ft 2 kts 63°
2026-05-08 22:50 41.28357 2.07813 8 ft 87 kts 65°
2026-05-08 22:50 41.28734 2.08905 12 ft 171 kts 65°
2026-05-08 22:50 41.29306 2.10551 455 ft 216 kts 65°
2026-05-08 22:51 41.29797 2.12574 1228 ft 246 kts 86°
2026-05-08 22:51 41.29365 2.14806 2202 ft 257 kts 119°
2026-05-08 22:51 41.28165 2.16510 3220 ft 252 kts 148°
2026-05-08 22:51 41.26527 2.17350 3908 ft 255 kts 166°
2026-05-08 22:52 41.24784 2.17866 4557 ft 259 kts 168°
2026-05-08 22:52 41.23005 2.18343 5222 ft 261 kts 168°
2026-05-08 22:52 41.21236 2.18810 5886 ft 264 kts 168°
2026-05-08 22:52 41.19427 2.19292 6563 ft 266 kts 168°
2026-05-08 22:53 41.17597 2.19785 7251 ft 269 kts 168°
2026-05-08 22:53 41.15751 2.20286 7943 ft 272 kts 168°
2026-05-08 22:53 41.13907 2.20790 8633 ft 274 kts 168°
2026-05-08 22:53 41.12028 2.21306 9331 ft 277 kts 168°
2026-05-08 22:54 41.10124 2.21831 10030 ft 280 kts 168°
2026-05-08 22:54 41.08177 2.22368 10452 ft 296 kts 168°
2026-05-08 22:54 41.06081 2.22948 10629 ft 318 kts 168°
2026-05-08 22:54 41.03837 2.23569 10806 ft 339 kts 168°
2026-05-08 22:55 41.01497 2.24216 11094 ft 354 kts 168°
2026-05-08 22:55 40.99053 2.24892 11654 ft 360 kts 168°
2026-05-08 22:55 40.96587 2.25575 12332 ft 362 kts 168°
2026-05-08 22:55 40.94102 2.26261 13008 ft 365 kts 168°
2026-05-08 22:56 40.91626 2.26945 13656 ft 369 kts 168°
2026-05-08 22:56 40.89098 2.27643 14311 ft 372 kts 168°
2026-05-08 22:56 40.86549 2.28346 14969 ft 376 kts 168°
2026-05-08 22:56 40.83976 2.29056 15635 ft 379 kts 168°
2026-05-08 22:57 40.81409 2.29763 16264 ft 382 kts 168°
2026-05-08 22:57 40.78789 2.30484 16887 ft 386 kts 168°
2026-05-08 22:57 40.76145 2.31211 17492 ft 389 kts 168°
2026-05-08 22:57 40.73468 2.31946 18087 ft 393 kts 168°
2026-05-08 22:58 40.70806 2.32677 18659 ft 396 kts 168°
2026-05-08 22:58 40.68088 2.33423 19221 ft 399 kts 168°
2026-05-08 22:58 40.65355 2.34172 19770 ft 403 kts 168°
2026-05-08 22:58 40.62601 2.34930 20304 ft 406 kts 167°
2026-05-08 22:59 40.59843 2.35814 20821 ft 409 kts 165°
2026-05-08 22:59 40.57075 2.36802 21326 ft 412 kts 165°
2026-05-08 22:59 40.54332 2.37787 21807 ft 415 kts 165°
2026-05-08 22:59 40.51532 2.38771 22279 ft 418 kts 165°
2026-05-08 23:00 40.48704 2.39753 22732 ft 421 kts 165°
2026-05-08 23:00 40.45850 2.40740 23185 ft 424 kts 165°
2026-05-08 23:00 40.42986 2.41731 23617 ft 426 kts 165°
2026-05-08 23:00 40.40107 2.42727 24036 ft 429 kts 165°
2026-05-08 23:01 40.37243 2.43718 24443 ft 432 kts 165°
2026-05-08 23:01 40.34320 2.44729 24831 ft 434 kts 165°
2026-05-08 23:01 40.31386 2.45742 25219 ft 437 kts 165°
2026-05-08 23:01 40.28440 2.46759 25592 ft 439 kts 165°
2026-05-08 23:02 40.25472 2.47783 25950 ft 442 kts 165°
2026-05-08 23:02 40.22526 2.48798 26297 ft 444 kts 165°
2026-05-08 23:02 40.19524 2.49832 26639 ft 446 kts 165°
2026-05-08 23:02 40.16514 2.50869 26968 ft 448 kts 165°
2026-05-08 23:03 40.13486 2.51913 27286 ft 451 kts 165°
2026-05-08 23:03 40.10451 2.52959 27604 ft 452 kts 165°
2026-05-08 23:03 40.07400 2.54010 28001 ft 452 kts 165°
2026-05-08 23:03 40.04360 2.55056 28470 ft 450 kts 165°
2026-05-08 23:04 40.01374 2.56083 28917 ft 448 kts 165°
2026-05-08 23:04 39.98359 2.57119 29304 ft 448 kts 165°
2026-05-08 23:04 39.95342 2.58154 29667 ft 448 kts 165°
2026-05-08 23:04 39.92333 2.59186 30051 ft 447 kts 165°
2026-05-08 23:05 39.89323 2.60217 30449 ft 445 kts 165°
2026-05-08 23:05 39.86327 2.61242 30828 ft 444 kts 165°
2026-05-08 23:05 39.83337 2.62264 31003 ft 447 kts 165°
2026-05-08 23:05 39.80304 2.63300 31003 ft 450 kts 165°
2026-05-08 23:06 39.74297 2.65349 30991 ft 445 kts 165°
2026-05-08 23:06 39.68282 2.67398 31010 ft 449 kts 165°
2026-05-08 23:07 39.62230 2.69455 31005 ft 451 kts 165°
2026-05-08 23:07 39.57176 2.71170 31001 ft 451 kts 165°
2026-05-08 23:08 39.50119 2.73561 30997 ft 449 kts 165°
2026-05-08 23:08 39.45054 2.75274 31004 ft 447 kts 165°
2026-05-08 23:09 39.39072 2.77322 30997 ft 446 kts 165°
2026-05-08 23:09 39.33116 2.79401 31002 ft 444 kts 165°
2026-05-08 23:10 39.27149 2.81479 31001 ft 443 kts 165°
2026-05-08 23:10 39.21228 2.83532 31002 ft 442 kts 165°
2026-05-08 23:11 39.15277 2.85591 31002 ft 442 kts 165°
2026-05-08 23:11 39.09360 2.87634 31002 ft 442 kts 165°
2026-05-08 23:12 39.03399 2.89689 31002 ft 443 kts 165°
2026-05-08 23:12 38.97452 2.91707 31002 ft 444 kts 165°
2026-05-08 23:13 38.91460 2.93721 31002 ft 444 kts 165°
2026-05-08 23:13 38.85504 2.95756 31002 ft 445 kts 165°
2026-05-08 23:14 38.79508 2.97811 31001 ft 445 kts 165°
2026-05-08 23:14 38.73508 2.99860 31001 ft 445 kts 165°
2026-05-08 23:15 38.67507 3.01904 31001 ft 446 kts 165°
2026-05-08 23:15 38.61534 3.03934 31001 ft 445 kts 165°
2026-05-08 23:16 38.55584 3.05953 30991 ft 439 kts 165°
2026-05-08 23:16 38.52679 3.06938 30982 ft 423 kts 165°
2026-05-08 23:16 38.49885 3.07884 30979 ft 408 kts 165°
2026-05-08 23:17 38.47183 3.08798 30984 ft 394 kts 165°
2026-05-08 23:17 38.44577 3.09680 30980 ft 381 kts 165°
2026-05-08 23:17 38.42055 3.10532 30980 ft 368 kts 165°
2026-05-08 23:17 38.39643 3.11346 30983 ft 356 kts 165°
2026-05-08 23:18 38.37287 3.12142 30978 ft 344 kts 165°
2026-05-08 23:18 38.35012 3.12909 30982 ft 332 kts 165°
2026-05-08 23:18 38.30594 3.14396 31013 ft 331 kts 166°
2026-05-08 23:19 38.28291 3.14898 31006 ft 341 kts 177°
2026-05-08 23:19 38.25921 3.14959 31021 ft 347 kts 180°
2026-05-08 23:19 38.21084 3.14966 30995 ft 345 kts 180°
2026-05-08 23:20 38.16310 3.15017 30991 ft 343 kts 179°
2026-05-08 23:20 38.11542 3.15095 30994 ft 340 kts 179°
2026-05-08 23:21 38.06855 3.15269 30995 ft 337 kts 178°
2026-05-08 23:21 38.02158 3.15499 31001 ft 336 kts 178°
2026-05-08 23:22 37.97478 3.15725 31005 ft 337 kts 178°
2026-05-08 23:22 37.92779 3.15944 31007 ft 338 kts 178°
2026-05-08 23:23 37.90466 3.16051 30664 ft 335 kts 178°
2026-05-08 23:23 37.88120 3.16159 30026 ft 339 kts 178°
2026-05-08 23:23 37.85744 3.16267 29426 ft 341 kts 178°
2026-05-08 23:23 37.83380 3.16375 28931 ft 338 kts 178°
2026-05-08 23:24 37.81042 3.16482 28467 ft 335 kts 178°
2026-05-08 23:24 37.78721 3.16587 27996 ft 332 kts 178°
2026-05-08 23:24 37.76448 3.16691 27524 ft 330 kts 178°
2026-05-08 23:24 37.74155 3.16795 27048 ft 327 kts 178°
2026-05-08 23:25 37.71887 3.16898 26580 ft 325 kts 178°
2026-05-08 23:25 37.69634 3.17000 26119 ft 322 kts 178°
2026-05-08 23:25 37.67394 3.17102 25650 ft 320 kts 178°
2026-05-08 23:25 37.65205 3.17201 25196 ft 318 kts 178°
2026-05-08 23:26 37.63001 3.17301 24739 ft 315 kts 178°
2026-05-08 23:26 37.60808 3.17400 24282 ft 313 kts 178°
2026-05-08 23:26 37.58641 3.17498 23830 ft 311 kts 178°
2026-05-08 23:26 37.56489 3.17595 23381 ft 309 kts 178°
2026-05-08 23:27 37.54343 3.17692 22932 ft 306 kts 178°
2026-05-08 23:27 37.52218 3.17788 22488 ft 304 kts 178°
2026-05-08 23:27 37.50136 3.17882 22051 ft 302 kts 178°
2026-05-08 23:27 37.48041 3.17977 21612 ft 300 kts 178°
2026-05-08 23:28 37.45959 3.18071 21164 ft 298 kts 178°
2026-05-08 23:28 37.43887 3.18164 20738 ft 296 kts 178°
2026-05-08 23:28 37.41827 3.18257 20304 ft 294 kts 178°
2026-05-08 23:28 37.39791 3.18348 19874 ft 292 kts 178°
2026-05-08 23:29 37.37793 3.18438 19452 ft 290 kts 178°
2026-05-08 23:29 37.35774 3.18529 19022 ft 288 kts 178°
2026-05-08 23:29 37.33773 3.18619 18599 ft 286 kts 178°
2026-05-08 23:29 37.31784 3.18708 18186 ft 284 kts 178°
2026-05-08 23:30 37.29822 3.18796 17816 ft 280 kts 178°
2026-05-08 23:30 37.27876 3.18884 17426 ft 278 kts 178°
2026-05-08 23:30 37.25946 3.18970 16995 ft 277 kts 178°
2026-05-08 23:30 37.24052 3.18670 16541 ft 275 kts 200°
2026-05-08 23:31 37.22309 3.17767 16154 ft 273 kts 204°
2026-05-08 23:31 37.20575 3.16814 15742 ft 271 kts 204°
2026-05-08 23:31 37.18842 3.15868 15332 ft 270 kts 205°
2026-05-08 23:31 37.17257 3.14635 14914 ft 268 kts 217°
2026-05-08 23:32 37.15769 3.13232 14517 ft 266 kts 217°
2026-05-08 23:32 37.14290 3.11838 14118 ft 266 kts 217°
2026-05-08 23:32 37.12798 3.10432 13734 ft 270 kts 217°
2026-05-08 23:32 37.11299 3.09018 13291 ft 276 kts 217°
2026-05-08 23:33 37.09748 3.07558 12854 ft 281 kts 217°
2026-05-08 23:33 37.08170 3.06070 12401 ft 286 kts 217°
2026-05-08 23:33 37.06563 3.04557 11964 ft 290 kts 217°
2026-05-08 23:33 37.04936 3.03025 11520 ft 294 kts 217°
2026-05-08 23:34 37.03292 3.01478 11078 ft 297 kts 217°
2026-05-08 23:34 37.01649 2.99932 10635 ft 300 kts 217°
2026-05-08 23:34 36.99973 2.98356 10190 ft 303 kts 217°
2026-05-08 23:34 36.98284 2.96768 9745 ft 305 kts 217°
2026-05-08 23:35 36.96583 2.95169 9292 ft 306 kts 217°
2026-05-08 23:35 36.94875 2.93564 8840 ft 308 kts 217°
2026-05-08 23:35 36.93157 2.91950 8437 ft 307 kts 217°
2026-05-08 23:35 36.91456 2.90354 8088 ft 305 kts 217°
2026-05-08 23:36 36.89763 2.88765 7733 ft 302 kts 217°
2026-05-08 23:36 36.88084 2.87190 7380 ft 300 kts 217°
2026-05-08 23:36 36.86355 2.85741 7013 ft 299 kts 205°
2026-05-08 23:36 36.84448 2.84856 6751 ft 291 kts 198°
2026-05-08 23:37 36.82557 2.84109 6464 ft 282 kts 197°
2026-05-08 23:37 36.80689 2.83390 6179 ft 274 kts 197°
2026-05-08 23:37 36.78887 2.82702 5894 ft 267 kts 197°
2026-05-08 23:37 36.77123 2.82032 5617 ft 263 kts 197°
2026-05-08 23:38 36.75400 2.81378 5365 ft 260 kts 197°
2026-05-08 23:38 36.73705 2.80736 5132 ft 249 kts 197°
2026-05-08 23:38 36.72047 2.80383 4822 ft 237 kts 173°
2026-05-08 23:38 36.70627 2.81231 4534 ft 225 kts 133°
2026-05-08 23:39 36.69891 2.82885 4269 ft 214 kts 105°
2026-05-08 23:39 36.69863 2.84679 3998 ft 204 kts 82°
2026-05-08 23:39 36.69956 2.86388 3730 ft 195 kts 90°
2026-05-08 23:39 36.69933 2.87987 3556 ft 186 kts 91°
2026-05-08 23:40 36.69893 2.89607 3531 ft 182 kts 92°
2026-05-08 23:40 36.69853 2.91176 3544 ft 185 kts 92°
2026-05-08 23:40 36.69812 2.92739 3535 ft 175 kts 92°
2026-05-08 23:40 36.69774 2.94198 3524 ft 164 kts 92°
2026-05-08 23:41 36.69737 2.95630 3380 ft 166 kts 92°
2026-05-08 23:41 36.69701 2.97034 3183 ft 161 kts 92°
2026-05-08 23:41 36.69667 2.98373 2976 ft 156 kts 92°
2026-05-08 23:41 36.69632 2.99717 2776 ft 157 kts 92°
2026-05-08 23:42 36.69598 3.01058 2652 ft 152 kts 92°
2026-05-08 23:42 36.69610 3.02471 2521 ft 171 kts 89°
2026-05-08 23:42 36.69598 3.03943 2170 ft 167 kts 91°
2026-05-08 23:42 36.69553 3.05347 1934 ft 159 kts 92°
2026-05-08 23:43 36.69460 3.06734 1728 ft 157 kts 96°
2026-05-08 23:43 36.69410 3.08042 1603 ft 147 kts 91°
2026-05-08 23:43 36.69410 3.09327 1384 ft 150 kts 91°
2026-05-08 23:43 36.69372 3.10635 1098 ft 153 kts 93°
2026-05-08 23:44 36.69318 3.11950 907 ft 148 kts 91°
2026-05-08 23:44 36.69294 3.13245 719 ft 149 kts 92°
2026-05-08 23:44 36.69265 3.14510 546 ft 146 kts 91°
2026-05-08 23:44 36.69236 3.15757 333 ft 142 kts 92°
2026-05-08 23:45 36.69207 3.16999 133 ft 143 kts 92°
2026-05-08 23:45 36.69179 3.18183 59 ft 123 kts 92°
2026-05-08 23:45 36.69161 3.18978 67 ft 64 kts 91°
2026-05-08 23:45 36.69152 3.19378 69 ft 40 kts 91°
2026-05-08 23:46 36.69159 3.19739 63 ft 25 kts 72°
2026-05-08 23:46 36.69218 3.19916 66 ft 18 kts 63°
2026-05-08 23:46 36.69287 3.20111 71 ft 24 kts 76°
2026-05-08 23:46 36.69330 3.20285 70 ft 23 kts 31°
2026-05-08 23:47 36.69470 3.20293 69 ft 2 kts
2026-05-08 23:47 36.69497 3.20281 65 ft 6 kts 292°
2026-05-08 23:47 36.69485 3.20156 72 ft 24 kts 259°
2026-05-08 23:47 36.69479 3.19971 64 ft 12 kts 336°
2026-05-08 23:48 36.69563 3.19978 71 ft 12 kts
2026-05-08 23:48 36.69635 3.20006 65 ft 11 kts 50°
2026-05-08 23:48 36.69638 3.20089 71 ft 9 kts 96°
2026-05-08 23:48 36.69638 3.20100 71 ft 0 kts 95°